Year,Month,Day,Hour,Minute,Value (Times are PST for temperature in C)
2010,09,14,00,00,10.60
2010,09,14,00,01,10.60
2010,09,14,00,02,10.60
2010,09,14,00,03,10.60
2010,09,14,00,04,10.50
2010,09,14,00,05,10.50
2010,09,14,00,06,10.50
2010,09,14,00,07,10.50
2010,09,14,00,08,10.50
2010,09,14,00,09,10.40
2010,09,14,00,10,10.40
2010,09,14,00,11,10.40
2010,09,14,00,12,10.40
2010,09,14,00,13,10.40
2010,09,14,00,14,10.40
2010,09,14,00,15,10.40
2010,09,14,00,16,10.40
2010,09,14,00,17,10.40
2010,09,14,00,18,10.40
2010,09,14,00,19,10.40
2010,09,14,00,20,10.30
2010,09,14,00,21,10.30
2010,09,14,00,22,10.30
2010,09,14,00,23,10.30
2010,09,14,00,24,10.30
2010,09,14,00,25,10.30
2010,09,14,00,26,10.30
2010,09,14,00,27,10.30
2010,09,14,00,28,10.30
2010,09,14,00,29,10.30
2010,09,14,00,30,10.30
2010,09,14,00,31,10.30
2010,09,14,00,32,10.30
2010,09,14,00,33,10.20
2010,09,14,00,34,10.20
2010,09,14,00,35,10.20
2010,09,14,00,36,10.20
2010,09,14,00,37,10.20
2010,09,14,00,38,10.20
2010,09,14,00,39,10.20
2010,09,14,00,40,10.30
2010,09,14,00,41,10.30
2010,09,14,00,42,10.30
2010,09,14,00,43,10.30
2010,09,14,00,44,10.30
2010,09,14,00,45,10.30
2010,09,14,00,46,10.30
2010,09,14,00,47,10.30
2010,09,14,00,48,10.20
2010,09,14,00,49,10.20
2010,09,14,00,50,10.20
2010,09,14,00,51,10.20
2010,09,14,00,52,10.20
2010,09,14,00,53,10.20
2010,09,14,00,54,10.20
2010,09,14,00,55,10.20
2010,09,14,00,56,10.10
2010,09,14,00,57,10.10
2010,09,14,00,58,10.10
2010,09,14,00,59,10.00
2010,09,14,01,00,10.00
2010,09,14,01,01,10.00
2010,09,14,01,02,10.00
2010,09,14,01,03,9.90
2010,09,14,01,04,9.90
2010,09,14,01,05,9.90
2010,09,14,01,06,9.90
2010,09,14,01,07,9.90
2010,09,14,01,08,9.90
2010,09,14,01,09,9.90
2010,09,14,01,10,9.90
2010,09,14,01,11,9.80
2010,09,14,01,12,9.80
2010,09,14,01,13,9.80
2010,09,14,01,14,9.80
2010,09,14,01,15,9.80
2010,09,14,01,16,9.80
2010,09,14,01,17,9.70
2010,09,14,01,18,9.70
2010,09,14,01,19,9.70
2010,09,14,01,20,9.70
2010,09,14,01,21,9.70
2010,09,14,01,22,9.70
2010,09,14,01,23,9.70
2010,09,14,01,24,9.70
2010,09,14,01,25,9.70
2010,09,14,01,26,9.70
2010,09,14,01,27,9.70
2010,09,14,01,28,9.70
2010,09,14,01,29,9.70
2010,09,14,01,30,9.70
2010,09,14,01,31,9.70
2010,09,14,01,32,9.70
2010,09,14,01,33,9.70
2010,09,14,01,34,9.70
2010,09,14,01,35,9.70
2010,09,14,01,36,9.70
2010,09,14,01,37,9.70
2010,09,14,01,38,9.70
2010,09,14,01,39,9.70
2010,09,14,01,40,9.70
2010,09,14,01,41,9.70
2010,09,14,01,42,9.70
2010,09,14,01,43,9.70
2010,09,14,01,44,9.70
2010,09,14,01,45,9.70
2010,09,14,01,46,9.70
2010,09,14,01,47,9.70
2010,09,14,01,48,9.70
2010,09,14,01,49,9.70
2010,09,14,01,50,9.70
2010,09,14,01,51,9.70
2010,09,14,01,52,9.70
2010,09,14,01,53,9.60
2010,09,14,01,54,9.60
2010,09,14,01,55,9.60
2010,09,14,01,56,9.60
2010,09,14,01,57,9.60
2010,09,14,01,58,9.60
2010,09,14,01,59,9.60
2010,09,14,02,00,9.60
2010,09,14,02,01,9.60
2010,09,14,02,02,9.60
2010,09,14,02,03,9.50
2010,09,14,02,04,9.50
2010,09,14,02,05,9.50
2010,09,14,02,06,9.50
2010,09,14,02,07,9.50
2010,09,14,02,08,9.50
2010,09,14,02,09,9.50
2010,09,14,02,10,9.50
2010,09,14,02,11,9.50
2010,09,14,02,12,9.50
2010,09,14,02,13,9.50
2010,09,14,02,14,9.50
2010,09,14,02,15,9.50
2010,09,14,02,16,9.50
2010,09,14,02,17,9.50
2010,09,14,02,18,9.50
2010,09,14,02,19,9.50
2010,09,14,02,20,9.50
2010,09,14,02,21,9.50
2010,09,14,02,22,9.50
2010,09,14,02,23,9.50
2010,09,14,02,24,9.50
2010,09,14,02,25,9.50
2010,09,14,02,26,9.50
2010,09,14,02,27,9.50
2010,09,14,02,28,9.50
2010,09,14,02,29,9.50
2010,09,14,02,30,9.50
2010,09,14,02,31,9.50
2010,09,14,02,32,9.50
2010,09,14,02,33,9.50
2010,09,14,02,34,9.50
2010,09,14,02,35,9.50
2010,09,14,02,36,9.50
2010,09,14,02,37,9.50
2010,09,14,02,38,9.50
2010,09,14,02,39,9.40
2010,09,14,02,40,9.40
2010,09,14,02,41,9.40
2010,09,14,02,42,9.40
2010,09,14,02,43,9.40
2010,09,14,02,44,9.40
2010,09,14,02,45,9.40
2010,09,14,02,46,9.40
2010,09,14,02,47,9.40
2010,09,14,02,48,9.30
2010,09,14,02,49,9.30
2010,09,14,02,50,9.30
2010,09,14,02,51,9.30
2010,09,14,02,52,9.30
2010,09,14,02,53,9.30
2010,09,14,02,54,9.30
2010,09,14,02,55,9.30
2010,09,14,02,56,9.30
2010,09,14,02,57,9.30
2010,09,14,02,58,9.30
2010,09,14,02,59,9.30
2010,09,14,03,00,9.30
2010,09,14,03,01,9.30
2010,09,14,03,02,9.30
2010,09,14,03,03,9.40
2010,09,14,03,04,9.40
2010,09,14,03,05,9.40
2010,09,14,03,06,9.40
2010,09,14,03,07,9.40
2010,09,14,03,08,9.40
2010,09,14,03,09,9.50
2010,09,14,03,10,9.50
2010,09,14,03,11,9.50
2010,09,14,03,12,9.50
2010,09,14,03,13,9.60
2010,09,14,03,14,9.60
2010,09,14,03,15,9.60
2010,09,14,03,16,9.50
2010,09,14,03,17,9.50
2010,09,14,03,18,9.40
2010,09,14,03,19,9.40
2010,09,14,03,20,9.30
2010,09,14,03,21,9.30
2010,09,14,03,22,9.30
2010,09,14,03,23,9.30
2010,09,14,03,24,9.20
2010,09,14,03,25,9.20
2010,09,14,03,26,9.20
2010,09,14,03,27,9.20
2010,09,14,03,28,9.10
2010,09,14,03,29,9.10
2010,09,14,03,30,9.10
2010,09,14,03,31,9.10
2010,09,14,03,32,9.00
2010,09,14,03,33,9.00
2010,09,14,03,34,9.00
2010,09,14,03,35,8.90
2010,09,14,03,36,8.90
2010,09,14,03,37,8.90
2010,09,14,03,38,8.90
2010,09,14,03,39,8.90
2010,09,14,03,40,8.80
2010,09,14,03,41,8.80
2010,09,14,03,42,8.80
2010,09,14,03,43,8.80
2010,09,14,03,44,8.80
2010,09,14,03,45,8.80
2010,09,14,03,46,8.80
2010,09,14,03,47,8.80
2010,09,14,03,48,8.80
2010,09,14,03,49,8.80
2010,09,14,03,50,8.80
2010,09,14,03,51,8.80
2010,09,14,03,52,8.80
2010,09,14,03,53,8.80
2010,09,14,03,54,8.80
2010,09,14,03,55,8.80
2010,09,14,03,56,8.80
2010,09,14,03,57,8.80
2010,09,14,03,58,8.80
2010,09,14,03,59,8.80
2010,09,14,04,00,8.80
2010,09,14,04,01,8.80
2010,09,14,04,02,8.80
2010,09,14,04,03,8.80
2010,09,14,04,04,8.70
2010,09,14,04,05,8.70
2010,09,14,04,06,8.70
2010,09,14,04,07,8.70
2010,09,14,04,08,8.70
2010,09,14,04,09,8.70
2010,09,14,04,10,8.70
2010,09,14,04,11,8.70
2010,09,14,04,12,8.70
2010,09,14,04,13,8.70
2010,09,14,04,14,8.70
2010,09,14,04,15,8.70
2010,09,14,04,16,8.70
2010,09,14,04,17,8.70
2010,09,14,04,18,8.70
2010,09,14,04,19,8.70
2010,09,14,04,20,8.70
2010,09,14,04,21,8.70
2010,09,14,04,22,8.70
2010,09,14,04,23,8.70
2010,09,14,04,24,8.60
2010,09,14,04,25,8.60
2010,09,14,04,26,8.60
2010,09,14,04,27,8.60
2010,09,14,04,28,8.60
2010,09,14,04,29,8.60
2010,09,14,04,30,8.60
2010,09,14,04,31,8.60
2010,09,14,04,32,8.60
2010,09,14,04,33,8.60
2010,09,14,04,34,8.60
2010,09,14,04,35,8.60
2010,09,14,04,36,8.60
2010,09,14,04,37,8.60
2010,09,14,04,38,8.60
2010,09,14,04,39,8.60
2010,09,14,04,40,8.60
2010,09,14,04,41,8.50
2010,09,14,04,42,8.50
2010,09,14,04,43,8.40
2010,09,14,04,44,8.40
2010,09,14,04,45,8.40
2010,09,14,04,46,8.40
2010,09,14,04,47,8.40
2010,09,14,04,48,8.40
2010,09,14,04,49,8.40
2010,09,14,04,50,8.40
2010,09,14,04,51,8.40
2010,09,14,04,52,8.40
2010,09,14,04,53,8.40
2010,09,14,04,54,8.40
2010,09,14,04,55,8.40
2010,09,14,04,56,8.40
2010,09,14,04,57,8.40
2010,09,14,04,58,8.40
2010,09,14,04,59,8.40
2010,09,14,05,00,8.40
2010,09,14,05,01,8.40
2010,09,14,05,02,8.40
2010,09,14,05,03,8.40
2010,09,14,05,04,8.30
2010,09,14,05,05,8.30
2010,09,14,05,06,8.30
2010,09,14,05,07,8.30
2010,09,14,05,08,8.30
2010,09,14,05,09,8.30
2010,09,14,05,10,8.30
2010,09,14,05,11,8.30
2010,09,14,05,12,8.30
2010,09,14,05,13,8.20
2010,09,14,05,14,8.20
2010,09,14,05,15,8.20
2010,09,14,05,16,8.20
2010,09,14,05,17,8.20
2010,09,14,05,18,8.20
2010,09,14,05,19,8.20
2010,09,14,05,20,8.20
2010,09,14,05,21,8.20
2010,09,14,05,22,8.20
2010,09,14,05,23,8.20
2010,09,14,05,24,8.20
2010,09,14,05,25,8.20
2010,09,14,05,26,8.20
2010,09,14,05,27,8.20
2010,09,14,05,28,8.20
2010,09,14,05,29,8.20
2010,09,14,05,30,8.20
2010,09,14,05,31,8.20
2010,09,14,05,32,8.20
2010,09,14,05,33,8.20
2010,09,14,05,34,8.20
2010,09,14,05,35,8.20
2010,09,14,05,36,8.20
2010,09,14,05,37,8.10
2010,09,14,05,38,8.20
2010,09,14,05,39,8.10
2010,09,14,05,40,8.10
2010,09,14,05,41,8.10
2010,09,14,05,42,8.10
2010,09,14,05,43,8.10
2010,09,14,05,44,8.10
2010,09,14,05,45,8.20
2010,09,14,05,46,8.20
2010,09,14,05,47,8.10
2010,09,14,05,48,8.10
2010,09,14,05,49,8.20
2010,09,14,05,50,8.20
2010,09,14,05,51,8.20
2010,09,14,05,52,8.20
2010,09,14,05,53,8.20
2010,09,14,05,54,8.20
2010,09,14,05,55,8.20
2010,09,14,05,56,8.20
2010,09,14,05,57,8.20
2010,09,14,05,58,8.20
2010,09,14,05,59,8.20
2010,09,14,06,00,8.20
2010,09,14,06,01,8.20
2010,09,14,06,02,8.20
2010,09,14,06,03,8.20
2010,09,14,06,04,8.20
2010,09,14,06,05,8.20
2010,09,14,06,06,8.20
2010,09,14,06,07,8.20
2010,09,14,06,08,8.20
2010,09,14,06,09,8.30
2010,09,14,06,10,8.30
2010,09,14,06,11,8.30
2010,09,14,06,12,8.30
2010,09,14,06,13,8.30
2010,09,14,06,14,8.30
2010,09,14,06,15,8.30
2010,09,14,06,16,8.30
2010,09,14,06,17,8.30
2010,09,14,06,18,8.30
2010,09,14,06,19,8.30
2010,09,14,06,20,8.30
2010,09,14,06,21,8.30
2010,09,14,06,22,8.30
2010,09,14,06,23,8.20
2010,09,14,06,24,8.20
2010,09,14,06,25,8.20
2010,09,14,06,26,8.20
2010,09,14,06,27,8.20
2010,09,14,06,28,8.20
2010,09,14,06,29,8.20
2010,09,14,06,30,8.20
2010,09,14,06,31,8.20
2010,09,14,06,32,8.10
2010,09,14,06,33,8.10
2010,09,14,06,34,8.10
2010,09,14,06,35,8.10
2010,09,14,06,36,8.10
2010,09,14,06,37,8.10
2010,09,14,06,38,8.10
2010,09,14,06,39,8.10
2010,09,14,06,40,8.10
2010,09,14,06,41,8.10
2010,09,14,06,42,8.10
2010,09,14,06,43,8.00
2010,09,14,06,44,8.00
2010,09,14,06,45,8.00
2010,09,14,06,46,8.10
2010,09,14,06,47,8.10
2010,09,14,06,48,8.10
2010,09,14,06,49,8.10
2010,09,14,06,50,8.10
2010,09,14,06,51,8.10
2010,09,14,06,52,8.10
2010,09,14,06,53,8.10
2010,09,14,06,54,8.10
2010,09,14,06,55,8.10
2010,09,14,06,56,8.10
2010,09,14,06,57,8.10
2010,09,14,06,58,8.10
2010,09,14,06,59,8.10
2010,09,14,07,00,8.10
2010,09,14,07,01,8.10
2010,09,14,07,02,8.10
2010,09,14,07,03,8.10
2010,09,14,07,04,8.10
2010,09,14,07,05,8.10
2010,09,14,07,06,8.10
2010,09,14,07,07,8.10
2010,09,14,07,08,8.10
2010,09,14,07,09,8.10
2010,09,14,07,10,8.10
2010,09,14,07,11,8.10
2010,09,14,07,12,8.10
2010,09,14,07,13,8.10
2010,09,14,07,14,8.20
2010,09,14,07,15,8.20
2010,09,14,07,16,8.20
2010,09,14,07,17,8.20
2010,09,14,07,18,8.20
2010,09,14,07,19,8.20
2010,09,14,07,20,8.20
2010,09,14,07,21,8.20
2010,09,14,07,22,8.30
2010,09,14,07,23,8.30
2010,09,14,07,24,8.30
2010,09,14,07,25,8.30
2010,09,14,07,26,8.30
2010,09,14,07,27,8.30
2010,09,14,07,28,8.40
2010,09,14,07,29,8.40
2010,09,14,07,30,8.40
2010,09,14,07,31,8.40
2010,09,14,07,32,8.40
2010,09,14,07,33,8.40
2010,09,14,07,34,8.40
2010,09,14,07,35,8.50
2010,09,14,07,36,8.50
2010,09,14,07,37,8.50
2010,09,14,07,38,8.60
2010,09,14,07,39,8.60
2010,09,14,07,40,8.60
2010,09,14,07,41,8.60
2010,09,14,07,42,8.60
2010,09,14,07,43,8.60
2010,09,14,07,44,8.70
2010,09,14,07,45,8.70
2010,09,14,07,46,8.70
2010,09,14,07,47,8.70
2010,09,14,07,48,8.70
2010,09,14,07,49,8.70
2010,09,14,07,50,8.70
2010,09,14,07,51,8.80
2010,09,14,07,52,8.80
2010,09,14,07,53,8.80
2010,09,14,07,54,8.80
2010,09,14,07,55,8.90
2010,09,14,07,56,8.90
2010,09,14,07,57,8.90
2010,09,14,07,58,9.00
2010,09,14,07,59,9.00
2010,09,14,08,00,9.10
2010,09,14,08,01,9.10
2010,09,14,08,02,9.20
2010,09,14,08,03,9.20
2010,09,14,08,04,9.30
2010,09,14,08,05,9.30
2010,09,14,08,06,9.40
2010,09,14,08,07,9.40
2010,09,14,08,08,9.50
2010,09,14,08,09,9.60
2010,09,14,08,10,9.60
2010,09,14,08,11,9.70
2010,09,14,08,12,9.80
2010,09,14,08,13,9.90
2010,09,14,08,14,10.00
2010,09,14,08,15,10.10
2010,09,14,08,16,10.20
2010,09,14,08,17,10.30
2010,09,14,08,18,10.40
2010,09,14,08,19,10.50
2010,09,14,08,20,10.60
2010,09,14,08,21,10.60
2010,09,14,08,22,10.70
2010,09,14,08,23,10.80
2010,09,14,08,24,10.80
2010,09,14,08,25,10.80
2010,09,14,08,26,10.90
2010,09,14,08,27,10.90
2010,09,14,08,28,10.90
2010,09,14,08,29,10.90
2010,09,14,08,30,11.00
2010,09,14,08,31,11.00
2010,09,14,08,32,11.00
2010,09,14,08,33,11.00
2010,09,14,08,34,11.00
2010,09,14,08,35,11.10
2010,09,14,08,36,11.10
2010,09,14,08,37,11.10
2010,09,14,08,38,11.10
2010,09,14,08,39,11.10
2010,09,14,08,40,11.10
2010,09,14,08,41,11.20
2010,09,14,08,42,11.20
2010,09,14,08,43,11.20
2010,09,14,08,44,11.30
2010,09,14,08,45,11.30
2010,09,14,08,46,11.40
2010,09,14,08,47,11.40
2010,09,14,08,48,11.50
2010,09,14,08,49,11.50
2010,09,14,08,50,11.60
2010,09,14,08,51,11.70
2010,09,14,08,52,11.70
2010,09,14,08,53,11.80
2010,09,14,08,54,11.90
2010,09,14,08,55,11.90
2010,09,14,08,56,12.00
2010,09,14,08,57,12.10
2010,09,14,08,58,12.20
2010,09,14,08,59,12.20
2010,09,14,09,00,12.20
2010,09,14,09,01,12.30
2010,09,14,09,02,12.30
2010,09,14,09,03,12.40
2010,09,14,09,04,12.40
2010,09,14,09,05,12.50
2010,09,14,09,06,12.60
2010,09,14,09,07,12.60
2010,09,14,09,08,12.70
2010,09,14,09,09,12.80
2010,09,14,09,10,12.80
2010,09,14,09,11,12.90
2010,09,14,09,12,13.00
2010,09,14,09,13,13.10
2010,09,14,09,14,13.20
2010,09,14,09,15,13.20
2010,09,14,09,16,13.30
2010,09,14,09,17,13.40
2010,09,14,09,18,13.50
2010,09,14,09,19,13.50
2010,09,14,09,20,13.60
2010,09,14,09,21,13.70
2010,09,14,09,22,13.80
2010,09,14,09,23,13.90
2010,09,14,09,24,14.00
2010,09,14,09,25,14.10
2010,09,14,09,26,14.20
2010,09,14,09,27,14.30
2010,09,14,09,28,14.30
2010,09,14,09,29,14.40
2010,09,14,09,30,14.50
2010,09,14,09,31,14.60
2010,09,14,09,32,14.70
2010,09,14,09,33,14.80
2010,09,14,09,34,15.00
2010,09,14,09,35,15.10
2010,09,14,09,36,15.20
2010,09,14,09,37,15.30
2010,09,14,09,38,15.30
2010,09,14,09,39,15.40
2010,09,14,09,40,15.50
2010,09,14,09,41,15.60
2010,09,14,09,42,15.60
2010,09,14,09,43,15.70
2010,09,14,09,44,15.70
2010,09,14,09,45,15.60
2010,09,14,09,46,15.60
2010,09,14,09,47,15.60
2010,09,14,09,48,15.60
2010,09,14,09,49,15.60
2010,09,14,09,50,15.60
2010,09,14,09,51,15.70
2010,09,14,09,52,15.80
2010,09,14,09,53,15.80
2010,09,14,09,54,15.80
2010,09,14,09,55,15.90
2010,09,14,09,56,15.90
2010,09,14,09,57,16.00
2010,09,14,09,58,16.00
2010,09,14,09,59,16.10
2010,09,14,10,00,16.20
2010,09,14,10,01,16.20
2010,09,14,10,02,16.30
2010,09,14,10,03,16.30
2010,09,14,10,04,16.40
2010,09,14,10,05,16.40
2010,09,14,10,06,16.40
2010,09,14,10,07,16.50
2010,09,14,10,08,16.50
2010,09,14,10,09,16.50
2010,09,14,10,10,16.50
2010,09,14,10,11,16.50
2010,09,14,10,12,16.60
2010,09,14,10,13,16.60
2010,09,14,10,14,16.60
2010,09,14,10,15,16.60
2010,09,14,10,16,16.50
2010,09,14,10,17,16.50
2010,09,14,10,18,16.50
2010,09,14,10,19,16.50
2010,09,14,10,20,16.50
2010,09,14,10,21,16.50
2010,09,14,10,22,16.60
2010,09,14,10,23,16.60
2010,09,14,10,24,16.70
2010,09,14,10,25,16.70
2010,09,14,10,26,16.70
2010,09,14,10,27,16.70
2010,09,14,10,28,16.70
2010,09,14,10,29,16.80
2010,09,14,10,30,16.80
2010,09,14,10,31,16.90
2010,09,14,10,32,17.00
2010,09,14,10,33,17.20
2010,09,14,10,34,17.30
2010,09,14,10,35,17.40
2010,09,14,10,36,17.40
2010,09,14,10,37,17.40
2010,09,14,10,38,17.50
2010,09,14,10,39,17.50
2010,09,14,10,40,17.60
2010,09,14,10,41,17.70
2010,09,14,10,42,17.60
2010,09,14,10,43,17.60
2010,09,14,10,44,17.50
2010,09,14,10,45,17.50
2010,09,14,10,46,17.40
2010,09,14,10,47,17.40
2010,09,14,10,48,17.30
2010,09,14,10,49,17.30
2010,09,14,10,50,17.20
2010,09,14,10,51,17.10
2010,09,14,10,52,17.00
2010,09,14,10,53,17.00
2010,09,14,10,54,16.90
2010,09,14,10,55,16.90
2010,09,14,10,56,16.80
2010,09,14,10,57,16.90
2010,09,14,10,58,16.90
2010,09,14,10,59,17.00
2010,09,14,11,00,17.20
2010,09,14,11,01,17.20
2010,09,14,11,02,17.30
2010,09,14,11,03,17.30
2010,09,14,11,04,17.30
2010,09,14,11,05,17.30
2010,09,14,11,06,17.30
2010,09,14,11,07,17.30
2010,09,14,11,08,17.30
2010,09,14,11,09,17.30
2010,09,14,11,10,17.20
2010,09,14,11,11,17.20
2010,09,14,11,12,17.20
2010,09,14,11,13,17.20
2010,09,14,11,14,17.20
2010,09,14,11,15,17.20
2010,09,14,11,16,17.30
2010,09,14,11,17,17.30
2010,09,14,11,18,17.40
2010,09,14,11,19,17.40
2010,09,14,11,20,17.40
2010,09,14,11,21,17.40
2010,09,14,11,22,17.40
2010,09,14,11,23,17.40
2010,09,14,11,24,17.40
2010,09,14,11,25,17.30
2010,09,14,11,26,17.30
2010,09,14,11,27,17.20
2010,09,14,11,28,17.20
2010,09,14,11,29,17.20
2010,09,14,11,30,17.20
2010,09,14,11,31,17.20
2010,09,14,11,32,17.20
2010,09,14,11,33,17.20
2010,09,14,11,34,17.20
2010,09,14,11,35,17.30
2010,09,14,11,36,17.30
2010,09,14,11,37,17.40
2010,09,14,11,38,17.40
2010,09,14,11,39,17.40
2010,09,14,11,40,17.40
2010,09,14,11,41,17.50
2010,09,14,11,42,17.60
2010,09,14,11,43,17.60
2010,09,14,11,44,17.60
2010,09,14,11,45,17.60
2010,09,14,11,46,17.70
2010,09,14,11,47,17.70
2010,09,14,11,48,17.60
2010,09,14,11,49,17.60
2010,09,14,11,50,17.50
2010,09,14,11,51,17.50
2010,09,14,11,52,17.50
2010,09,14,11,53,17.60
2010,09,14,11,54,17.60
2010,09,14,11,55,17.60
2010,09,14,11,56,17.70
2010,09,14,11,57,17.70
2010,09,14,11,58,17.80
2010,09,14,11,59,17.80
2010,09,14,12,00,17.80
2010,09,14,12,01,17.70
2010,09,14,12,02,17.60
2010,09,14,12,03,17.50
2010,09,14,12,04,17.40
2010,09,14,12,05,17.40
2010,09,14,12,06,17.40
2010,09,14,12,07,17.40
2010,09,14,12,08,17.40
2010,09,14,12,09,17.40
2010,09,14,12,10,17.40
2010,09,14,12,11,17.40
2010,09,14,12,12,17.40
2010,09,14,12,13,17.50
2010,09,14,12,14,17.60
2010,09,14,12,15,17.60
2010,09,14,12,16,17.70
2010,09,14,12,17,17.70
2010,09,14,12,18,17.80
2010,09,14,12,19,17.90
2010,09,14,12,20,18.00
2010,09,14,12,21,18.10
2010,09,14,12,22,18.20
2010,09,14,12,23,18.20
2010,09,14,12,24,18.10
2010,09,14,12,25,18.10
2010,09,14,12,26,18.20
2010,09,14,12,27,18.20
2010,09,14,12,28,18.30
2010,09,14,12,29,18.30
2010,09,14,12,30,18.30
2010,09,14,12,31,18.30
2010,09,14,12,32,18.20
2010,09,14,12,33,18.10
2010,09,14,12,34,18.10
2010,09,14,12,35,18.10
2010,09,14,12,36,18.10
2010,09,14,12,37,18.00
2010,09,14,12,38,17.90
2010,09,14,12,39,17.80
2010,09,14,12,40,17.70
2010,09,14,12,41,17.60
2010,09,14,12,42,17.50
2010,09,14,12,43,17.50
2010,09,14,12,44,17.40
2010,09,14,12,45,17.40
2010,09,14,12,46,17.40
2010,09,14,12,47,17.40
2010,09,14,12,48,17.50
2010,09,14,12,49,17.50
2010,09,14,12,50,17.50
2010,09,14,12,51,17.60
2010,09,14,12,52,17.60
2010,09,14,12,53,17.60
2010,09,14,12,54,17.50
2010,09,14,12,55,17.50
2010,09,14,12,56,17.50
2010,09,14,12,57,17.60
2010,09,14,12,58,17.60
2010,09,14,12,59,17.60
2010,09,14,13,00,17.60
2010,09,14,13,01,17.60
2010,09,14,13,02,17.60
2010,09,14,13,03,17.60
2010,09,14,13,04,17.60
2010,09,14,13,05,17.60
2010,09,14,13,06,17.60
2010,09,14,13,07,17.60
2010,09,14,13,08,17.60
2010,09,14,13,09,17.70
2010,09,14,13,10,17.70
2010,09,14,13,11,17.60
2010,09,14,13,12,17.60
2010,09,14,13,13,17.70
2010,09,14,13,14,17.70
2010,09,14,13,15,17.80
2010,09,14,13,16,18.00
2010,09,14,13,17,18.00
2010,09,14,13,18,18.00
2010,09,14,13,19,18.00
2010,09,14,13,20,17.90
2010,09,14,13,21,17.90
2010,09,14,13,22,17.90
2010,09,14,13,23,17.90
2010,09,14,13,24,18.00
2010,09,14,13,25,18.00
2010,09,14,13,26,18.00
2010,09,14,13,27,18.00
2010,09,14,13,28,18.10
2010,09,14,13,29,18.10
2010,09,14,13,30,18.00
2010,09,14,13,31,17.90
2010,09,14,13,32,17.80
2010,09,14,13,33,17.80
2010,09,14,13,34,17.80
2010,09,14,13,35,17.70
2010,09,14,13,36,17.70
2010,09,14,13,37,17.60
2010,09,14,13,38,17.60
2010,09,14,13,39,17.60
2010,09,14,13,40,17.60
2010,09,14,13,41,17.70
2010,09,14,13,42,17.70
2010,09,14,13,43,17.70
2010,09,14,13,44,17.80
2010,09,14,13,45,17.90
2010,09,14,13,46,17.90
2010,09,14,13,47,18.00
2010,09,14,13,48,18.00
2010,09,14,13,49,18.10
2010,09,14,13,50,18.10
2010,09,14,13,51,18.10
2010,09,14,13,52,18.10
2010,09,14,13,53,18.10
2010,09,14,13,54,18.10
2010,09,14,13,55,18.10
2010,09,14,13,56,18.10
2010,09,14,13,57,18.10
2010,09,14,13,58,18.10
2010,09,14,13,59,18.20
2010,09,14,14,00,18.20
2010,09,14,14,01,18.20
2010,09,14,14,02,18.30
2010,09,14,14,03,18.30
2010,09,14,14,04,18.30
2010,09,14,14,05,18.30
2010,09,14,14,06,18.20
2010,09,14,14,07,18.20
2010,09,14,14,08,18.30
2010,09,14,14,09,18.30
2010,09,14,14,10,18.30
2010,09,14,14,11,18.30
2010,09,14,14,12,18.40
2010,09,14,14,13,18.40
2010,09,14,14,14,18.50
2010,09,14,14,15,18.60
2010,09,14,14,16,18.60
2010,09,14,14,17,18.60
2010,09,14,14,18,18.70
2010,09,14,14,19,18.80
2010,09,14,14,20,18.80
2010,09,14,14,21,18.90
2010,09,14,14,22,18.90
2010,09,14,14,23,18.90
2010,09,14,14,24,18.90
2010,09,14,14,25,18.90
2010,09,14,14,26,18.90
2010,09,14,14,27,18.90
2010,09,14,14,28,18.80
2010,09,14,14,29,18.90
2010,09,14,14,30,18.90
2010,09,14,14,31,18.90
2010,09,14,14,32,18.80
2010,09,14,14,33,18.80
2010,09,14,14,34,18.80
2010,09,14,14,35,18.90
2010,09,14,14,36,18.90
2010,09,14,14,37,19.00
2010,09,14,14,38,19.00
2010,09,14,14,39,19.10
2010,09,14,14,40,19.20
2010,09,14,14,41,19.20
2010,09,14,14,42,19.30
2010,09,14,14,43,19.30
2010,09,14,14,44,19.30
2010,09,14,14,45,19.30
2010,09,14,14,46,19.40
2010,09,14,14,47,19.40
2010,09,14,14,48,19.40
2010,09,14,14,49,19.40
2010,09,14,14,50,19.40
2010,09,14,14,51,19.30
2010,09,14,14,52,19.30
2010,09,14,14,53,19.30
2010,09,14,14,54,19.40
2010,09,14,14,55,19.40
2010,09,14,14,56,19.30
2010,09,14,14,57,19.30
2010,09,14,14,58,19.20
2010,09,14,14,59,19.10
2010,09,14,15,00,19.10
2010,09,14,15,01,19.10
2010,09,14,15,02,19.20
2010,09,14,15,03,19.20
2010,09,14,15,04,19.30
2010,09,14,15,05,19.30
2010,09,14,15,06,19.30
2010,09,14,15,07,19.30
2010,09,14,15,08,19.30
2010,09,14,15,09,19.30
2010,09,14,15,10,19.30
2010,09,14,15,11,19.30
2010,09,14,15,12,19.30
2010,09,14,15,13,19.30
2010,09,14,15,14,19.30
2010,09,14,15,15,19.40
2010,09,14,15,16,19.50
2010,09,14,15,17,19.50
2010,09,14,15,18,19.60
2010,09,14,15,19,19.60
2010,09,14,15,20,19.70
2010,09,14,15,21,19.70
2010,09,14,15,22,19.80
2010,09,14,15,23,19.80
2010,09,14,15,24,19.80
2010,09,14,15,25,19.80
2010,09,14,15,26,19.80
2010,09,14,15,27,19.80
2010,09,14,15,28,19.60
2010,09,14,15,29,19.60
2010,09,14,15,30,19.50
2010,09,14,15,31,19.40
2010,09,14,15,32,19.30
2010,09,14,15,33,19.30
2010,09,14,15,34,19.20
2010,09,14,15,35,19.20
2010,09,14,15,36,19.20
2010,09,14,15,37,19.20
2010,09,14,15,38,19.20
2010,09,14,15,39,19.10
2010,09,14,15,40,19.00
2010,09,14,15,41,18.80
2010,09,14,15,42,18.70
2010,09,14,15,43,18.60
2010,09,14,15,44,18.50
2010,09,14,15,45,18.50
2010,09,14,15,46,18.60
2010,09,14,15,47,18.70
2010,09,14,15,48,18.80
2010,09,14,15,49,18.80
2010,09,14,15,50,18.80
2010,09,14,15,51,18.80
2010,09,14,15,52,18.80
2010,09,14,15,53,18.70
2010,09,14,15,54,18.60
2010,09,14,15,55,18.50
2010,09,14,15,56,18.50
2010,09,14,15,57,18.40
2010,09,14,15,58,18.30
2010,09,14,15,59,18.20
2010,09,14,16,00,18.20
2010,09,14,16,01,18.20
2010,09,14,16,02,18.20
2010,09,14,16,03,18.30
2010,09,14,16,04,18.40
2010,09,14,16,05,18.50
2010,09,14,16,06,18.50
2010,09,14,16,07,18.60
2010,09,14,16,08,18.50
2010,09,14,16,09,18.40
2010,09,14,16,10,18.40
2010,09,14,16,11,18.40
2010,09,14,16,12,18.40
2010,09,14,16,13,18.40
2010,09,14,16,14,18.40
2010,09,14,16,15,18.40
2010,09,14,16,16,18.50
2010,09,14,16,17,18.60
2010,09,14,16,18,18.70
2010,09,14,16,19,18.70
2010,09,14,16,20,18.70
2010,09,14,16,21,18.70
2010,09,14,16,22,18.70
2010,09,14,16,23,18.70
2010,09,14,16,24,18.70
2010,09,14,16,25,18.70
2010,09,14,16,26,18.60
2010,09,14,16,27,18.60
2010,09,14,16,28,18.70
2010,09,14,16,29,18.80
2010,09,14,16,30,18.80
2010,09,14,16,31,18.80
2010,09,14,16,32,18.80
2010,09,14,16,33,18.90
2010,09,14,16,34,18.90
2010,09,14,16,35,18.90
2010,09,14,16,36,18.90
2010,09,14,16,37,18.90
2010,09,14,16,38,18.90
2010,09,14,16,39,18.90
2010,09,14,16,40,18.80
2010,09,14,16,41,18.80
2010,09,14,16,42,18.80
2010,09,14,16,43,18.80
2010,09,14,16,44,18.70
2010,09,14,16,45,18.70
2010,09,14,16,46,18.70
2010,09,14,16,47,18.70
2010,09,14,16,48,18.70
2010,09,14,16,49,18.80
2010,09,14,16,50,18.80
2010,09,14,16,51,18.80
2010,09,14,16,52,18.90
2010,09,14,16,53,18.90
2010,09,14,16,54,18.80
2010,09,14,16,55,18.80
2010,09,14,16,56,18.80
2010,09,14,16,57,18.80
2010,09,14,16,58,18.90
2010,09,14,16,59,18.80
2010,09,14,17,00,18.70
2010,09,14,17,01,18.60
2010,09,14,17,02,18.60
2010,09,14,17,03,18.60
2010,09,14,17,04,18.50
2010,09,14,17,05,18.50
2010,09,14,17,06,18.40
2010,09,14,17,07,18.40
2010,09,14,17,08,18.30
2010,09,14,17,09,18.20
2010,09,14,17,10,18.20
2010,09,14,17,11,18.20
2010,09,14,17,12,18.10
2010,09,14,17,13,18.10
2010,09,14,17,14,18.00
2010,09,14,17,15,17.90
2010,09,14,17,16,17.80
2010,09,14,17,17,17.80
2010,09,14,17,18,17.80
2010,09,14,17,19,17.70
2010,09,14,17,20,17.70
2010,09,14,17,21,17.70
2010,09,14,17,22,17.60
2010,09,14,17,23,17.60
2010,09,14,17,24,17.60
2010,09,14,17,25,17.60
2010,09,14,17,26,17.60
2010,09,14,17,27,17.60
2010,09,14,17,28,17.60
2010,09,14,17,29,17.50
2010,09,14,17,30,17.50
2010,09,14,17,31,17.40
2010,09,14,17,32,17.20
2010,09,14,17,33,17.10
2010,09,14,17,34,17.00
2010,09,14,17,35,17.00
2010,09,14,17,36,17.00
2010,09,14,17,37,17.00
2010,09,14,17,38,17.00